Overview Statistics Trail Chart Weather Telemetry Raw packets
 

This is the latest recevied weather packets stored in our database for station/object N0KWA. If no packets are shown the sender has not sent any weather packets the latest 10 day(s).

<< 87 88 89 90 91 >>
Time Temp. Humidity Pressure Rain* Wind** Luminosity Snow
1787788765 29.44° C 89% 1015.2 hPa 0 mm - 0 W/m² -
1787788459 29.44° C 89% 1015.1 hPa 0 mm - 0 W/m² -
1787788154 29.44° C 88% 1015 hPa 0 mm - 0 W/m² -
1787787849 29.44° C 87% 1015.1 hPa 0 mm - 0 W/m² -
1787787549 29.44° C 86% 1015.1 hPa 0 mm - 0 W/m² -
1787787243 30° C 87% 1015.4 hPa 0 mm - 0 W/m² -
1787786943 30° C 86% 1015.2 hPa 0 mm - 0 W/m² -
1787786638 30° C 85% 1015.2 hPa 0 mm - 0 W/m² -
1787786337 30.56° C 83% 1015.2 hPa 0 mm - 1 W/m² -
1787786034 30.56° C 81% 1015 hPa 0 mm - 1 W/m² -
1787785729 31.11° C 79% 1015.1 hPa 0 mm - 2 W/m² -
1787785424 31.67° C 77% 1015.1 hPa 0 mm - 3 W/m² -
1787785122 31.67° C 76% 1015.1 hPa 0 mm - 5 W/m² -
1787784818 31.67° C 77% 1015 hPa 0 mm - 13 W/m² -
1787784517 32.22° C 76% 1014.9 hPa 0 mm - 14 W/m² -
1787784212 32.22° C 77% 1014.7 hPa 0 mm - 13 W/m² -
1787783907 32.78° C 78% 1014.7 hPa 0 mm - 12 W/m² -
1787783603 32.78° C 74% 1014.8 hPa 0 mm - 10 W/m² -
1787783302 32.78° C 72% 1014.7 hPa 0 mm - 12 W/m² -
1787782998 32.78° C 76% 1014.7 hPa 0 mm - 11 W/m² -
1787782697 32.78° C 72% 1015.1 hPa 0 mm - 16 W/m² -
1787782393 32.78° C 72% 1015 hPa 0 mm - 13 W/m² -
1787782088 32.78° C 71% 1015.2 hPa 0 mm - 12 W/m² -
1787781783 32.78° C 72% 1015.2 hPa 0 mm - 13 W/m² -
1787781481 32.78° C 73% 1015.2 hPa 0 mm - 13 W/m² -

* Rain latest hour (hover to see other rain measurements)
** Current wind speed in m/s (hover to see current wind gust speed)